Little Rock, AR

6:54 PM CDT on October 21, 2017 (GMT -0500)
Adams

Weather History for KLIT - July, 2004

Change the Weather History Date:

Thursday, July 15, 2004

  Actual Average Record
Temperature  
Mean Temperature 86 °F 82 °F  
Max Temperature 93 °F 92 °F 107 °F (1980)
Min Temperature 79 °F 73 °F 62 °F (1990)
Degree Days  
Heating Degree Days 0 0  
Month to date heating degree days 0  
Since 1 June heating degree days 1  
Since 1 July heating degree days 0  
Cooling Degree Days 21 18  
Month to date cooling degree days 256  
Year to date cooling degree days 965  
Since 1 June cooling degree days 669  
Growing Degree Days 36 (Base 50)    
Moisture  
Dew Point 75 °F    
Average Humidity 73    
Maximum Humidity 88    
Minimum Humidity 55    
Precipitation  
Precipitation 0.00 in 0.13 in 0.85 in (2015)
Month to date precipitation 1.86  
Year to date precipitation 26.77  
Snow  
Snow 0.00 in 0.00 in - ()
Month to date snowfall 0.0  
Since 1 June snowfall 0.0  
Since 1 July snowfall 0.0  
Snow Depth -    
Sea Level Pressure  
Sea Level Pressure 29.91 in    
Wind  
Wind Speed 4 mph (NE)    
Max Wind Speed 8 mph    
Max Gust Speed -    
Visibility 8 miles    
Events Thunderstorm    
T = Trace of Precipitation, MM = Missing Value Source: NWS Daily Summary

Daily Weather History Graph

Daily Weather History Graph

Search for Another Location

Airport or City:

Trip Planner

Search our weather history database for the weather conditions in past years. The results will help you decide how hot, cold, wet, or windy it might be!

Date:

Astronomy

Jul. 15, 2004 Rise Set
Actual Time 6:07 AM CDT 8:22 PM CDT
Civil Twilight 5:38 AM CDT 8:51 PM CDT
Nautical Twilight 5:03 AM CDT 9:26 PM CDT
Astronomical Twilight 4:24 AM CDT 10:04 PM CDT
Moon 4:11 AM CDT (7/15) 7:31 PM CDT (7/15)
Length of Visible Light 15h 12m
Length of Day
14h 15m
Waning Crescent, 3% of the Moon is Illuminated
Jul 15
Waning Crescent
Jul 17
New
Jul 24
First Quarter
Jul 31
Full
Aug 7
Last Quarter

Hourly Weather History & Observations

Time (CDT) Temp. Heat Index Dew Point Humidity Pressure Visibility Wind Dir Wind Speed Gust Speed Precip Events Conditions
12:53 AM 82.9 °F 91.8 °F 77.0 °F 82% 29.89 in 7.0 mi WSW 3.5 mph - N/A   Partly Cloudy
1:53 AM 80.1 °F 85.4 °F 75.9 °F 87% 29.89 in 7.0 mi Calm Calm - N/A   Clear
2:53 AM 81.0 °F 87.3 °F 75.9 °F 85% 29.90 in 7.0 mi North 4.6 mph - N/A   Clear
3:53 AM 81.0 °F 87.3 °F 75.9 °F 85% 29.91 in 7.0 mi NE 4.6 mph - N/A   Clear
4:53 AM 79.0 °F - 75.0 °F 88% 29.92 in 7.0 mi NE 8.1 mph - N/A   Clear
5:53 AM 79.0 °F - 73.9 °F 84% 29.94 in 7.0 mi ENE 5.8 mph - N/A   Mostly Cloudy
6:53 AM 79.0 °F - 73.0 °F 82% 29.95 in 7.0 mi NNE 5.8 mph - N/A   Mostly Cloudy
7:53 AM 80.1 °F 83.8 °F 72.0 °F 76% 29.95 in 7.0 mi NE 5.8 mph - N/A   Scattered Clouds
8:53 AM 82.0 °F 86.3 °F 71.1 °F 69% 29.96 in 10.0 mi Calm Calm - N/A   Scattered Clouds
9:53 AM 84.9 °F 91.4 °F 73.0 °F 67% 29.96 in 10.0 mi North 5.8 mph - N/A   Scattered Clouds
10:53 AM 87.1 °F 94.5 °F 73.0 °F 63% 29.96 in 10.0 mi NE 6.9 mph - N/A   Scattered Clouds
11:53 AM 88.0 °F 95.6 °F 73.0 °F 61% 29.96 in 10.0 mi Variable 4.6 mph - N/A   Scattered Clouds
12:53 PM 91.0 °F 99.3 °F 73.0 °F 55% 29.95 in 7.0 mi East 5.8 mph - N/A   Scattered Clouds
1:53 PM 93.0 °F 104.6 °F 75.0 °F 56% 29.94 in 7.0 mi NNE 4.6 mph - N/A   Scattered Clouds
2:53 PM 91.9 °F 103.2 °F 75.0 °F 58% 29.92 in 7.0 mi Calm Calm - N/A   Scattered Clouds
3:53 PM 93.0 °F 105.3 °F 75.9 °F 57% 29.90 in 7.0 mi ENE 5.8 mph - N/A   Scattered Clouds
4:53 PM 91.0 °F 102.9 °F 75.9 °F 61% 29.87 in 7.0 mi South 6.9 mph - N/A   Scattered Clouds
5:53 PM 89.1 °F 100.2 °F 75.9 °F 65% 29.87 in 7.0 mi SE 4.6 mph - N/A   Mostly Cloudy
6:18 PM 87.8 °F 99.7 °F 77.0 °F 70% 29.88 in 7.0 mi ESE 5.8 mph - N/A Thunderstorm Thunderstorm
6:53 PM 87.1 °F 99.8 °F 78.1 °F 74% 29.88 in 7.0 mi ESE 5.8 mph - N/A   Mostly Cloudy
7:53 PM 86.0 °F 96.9 °F 77.0 °F 74% 29.88 in 7.0 mi Calm Calm - 0.00 in   Overcast
8:53 PM 84.9 °F 96.6 °F 78.1 °F 80% 29.88 in 7.0 mi Calm Calm - N/A   Mostly Cloudy
9:53 PM 82.0 °F 90.2 °F 77.0 °F 85% 29.89 in 7.0 mi Calm Calm - N/A   Mostly Cloudy
10:53 PM 81.0 °F 87.3 °F 75.9 °F 85% 29.90 in 7.0 mi North 5.8 mph - N/A   Scattered Clouds
11:53 PM 80.1 °F 84.5 °F 73.9 °F 81% 29.91 in 7.0 mi Calm Calm - N/A   Overcast